Regional Weather Roundup
Issued by NWS Sterling, VA

Home | Current Version | Previous Version | Graphics & Text | Print | Product List | Glossary On
Versions: 1 2 3 4 5 6 7 8 9 10 11 12 13 14 15 16 17 18 19 20 21 22 23 24 25 26 27 28 29 30 31 32 33 34 35 36 37 38 39 40 41 42 43 44 45 46 47 48 49 50
000
ASUS41 KLWX 260010
RWRLWX

REGIONAL WEATHER ROUNDUP
NATIONAL WEATHER SERVICE BALTIMORE MD/WASHINGTON DC
700 PM EST THU DEC 25 2014

Note: "FAIR" indicates few or no clouds below 12,000 feet
with no significant weather and/or obstructions to visibility.
 TC=TEMPERATURE CELSIUS

 * =Non NWS site. Station does not report precipitation (e.g. rain,
    snow, etc.), thunder, or fog.

DCZ001-MDZ009-015-VAZ040>042-051-053>054-260100-
WASHINGTON METRO

CITY           SKY/WX    TMP DP  RH WIND       PRES   REMARKS
WASHINGTON NAT CLEAR     49  30  48 NW13      30.15R
DULLES         CLEAR     41  30  65 NW5       30.15R
ANDREWS AFB    CLEAR     46  31  55 NW9       30.13R
FT BELVOIR     CLEAR     45  31  58 NW7       30.15R
QUANTICO       CLEAR     43  35  73 CALM      30.15R
COLLEGE PARK*  CLEAR     46  32  57 NW6       30.13R
LEESBURG*      CLEAR     45  34  65 NW12G18   30.15R
MANASSAS*      CLEAR     39  32  75 N7        30.14R
GAITHERSBURG*  CLEAR     43  28  56 W8        30.17R

$$

MDZ006>007-011-014-260100-
BALTIMORE METRO

CITY           SKY/WX    TMP DP  RH WIND       PRES   REMARKS
BWI AIRPORT    PTCLDY    42  30  62 W5        30.12R
MD SCIENCE CTR   N/A     47  30  51 MISG      30.12R
ANNAPOLIS      CLEAR     47  30  51 NW7       30.13R
FORT MEADE*    CLEAR     43  32  65 W7        30.15R

$$

MDZ012-015-019>023-260100-
MARYLAND EASTERN SHORE

CITY           SKY/WX    TMP DP  RH WIND       PRES   REMARKS
OCEAN CITY     CLEAR     40  33  76 CALM      30.11R
SALISBURY      CLEAR     40  34  79 CALM      30.11R
BAY BRIDGE AP*   N/A     46  32  57 NW8       30.12R
CAMBRIDGE*     CLEAR     45  32  61 NW3       30.12R
EASTON*        CLEAR     48  34  57 NW6       30.16R

$$

MDZ017>025-260100-
SOUTHERN MARYLAND

CITY           SKY/WX    TMP DP  RH WIND       PRES   REMARKS
PATUXENT RIVER CLEAR     40  32  73 NW3       30.12R
ST INIGOES     CLEAR     40  34  79 CALM      30.11R
LEONARDTOWN*   CLEAR     43  32  65 CALM      30.13R

$$

MDZ003>005-260100-
NORTH CENTRAL MARYLAND

CITY           SKY/WX    TMP DP  RH WIND       PRES   REMARKS
FREDERICK*     CLEAR     45  28  53 NW10      30.16R
HAGERSTOWN APT PTCLDY    38  28  67 NW7       30.13R
WESTMINSTER*   CLEAR     41  30  65 NW6       30.11R

$$

MDZ501>502-260100-
WESTERN MARYLAND

CITY           SKY/WX    TMP DP  RH WIND       PRES   REMARKS
OAKLAND*       CLOUDY    32 N/A N/A W10G17    30.12R WCI  24
CUMBERLAND*    PTCLDY    43  30  61 W10G16    30.20R

$$

VAZ025>031-260100-
SHENANDOAH VALLEY

CITY           SKY/WX    TMP DP  RH WIND       PRES   REMARKS
WINCHESTER*    CLEAR     43  25  49 W7        30.15R
FRONT ROYAL*   FAIR      39  30  70 CALM      30.13R
LURAY*         FAIR      45  32  61 W6        30.14R
NEW MARKET*    NOT AVBL
STAUNTON*      CLEAR     37  29  73 CALM      30.16R
WAYNESBORO*    FAIR      39  28  65 W6        30.14R

$$

WVZ021-048>050-054>055-260100-
EASTERN WEST VIRGINIA PANHANDLE

CITY           SKY/WX    TMP DP  RH WIND       PRES   REMARKS
MARTINSBURG    MOCLDY    43  27  53 W7        30.15R
PETERSBURG*    CLEAR     35  27  71 CALM      30.17R

$$

VAZ036>039-050-260100-
CENTRAL FOOTHILLS

CITY           SKY/WX    TMP DP  RH WIND       PRES   REMARKS
CHARLOTTESVILL CLEAR     45  29  53 CALM      30.14R
CULPEPER*      CLEAR     39  32  75 N5        30.14R
ORANGE*        CLEAR     37  32  81 SW5       30.15R
GORDONSVILLE*  FAIR      37  32  82 S3        30.14R
WARRENTON*     FAIR      44  36  73 N7        30.13R

$$

VAZ055>057-260100-
NORTH AND CENTRAL PIEDMONT

CITY           SKY/WX    TMP DP  RH WIND       PRES   REMARKS
FREDERICKSBRG* CLEAR     41  35  80 NW5       30.14R
STAFFORD*      CLEAR     38  31  74 CALM      30.18R

$$

NCZ024-NYZ072-PAZ021-071-VAZ022-071-260100-
OTHER REGIONAL OBSERVATIONS

CITY           SKY/WX    TMP DP  RH WIND       PRES   REMARKS
NEW YORK CITY  CLEAR     48  29  47 W9G18     30.02R
PHILADELPHIA   PTCLDY    48  29  47 W12       30.10R
PITTSBURGH     CLOUDY    38  28  67 SW10      30.16R
ROANOKE        CLEAR     40  28  62 NW5       30.20R
RICHMOND       CLEAR     43  33  68 CALM      30.14R
RALEIGH        CLEAR     44  32  62 CALM      30.19R

$$

ANZ530>537-260100-
MARINE OBSERVATIONS

STATION/POSITION TIME  TEMP    WIND        PRES
                       AIR SEA DIR/SP/G
                 (UTC) (F)     (DEG/KT/KT) (MB)
THOMAS PT LIGHT  0000   48 43  300/  8/  9 1021.4R
BALT KEY BRIDGE  0000   48     260/ 10/ 12 1019.8R
COVE POINT       0000   48     350/  8/  9 1019.8R
LEWISETTA        0000   45 44  210/  5/  6 1019.8R
SOLOMONS ISLAND  0000      44                N/A
PINEY POINT      0000          310/  2/  3   N/A

$$



USA.gov is the U.S. government's official web portal to all federal, state and local government web resources and services.